This demonstration page uses our WeatherBlox Daily Observations layout. Learn more.

39.01783, -85.05884

Hourly Observations for February 15, 2020

Temp ( °F °C ) Dew Point ( °F °C ) Humidity (%) Winds ( mph kmh ) Pressure ( in mb ) Visibility ( mi km ) Precip ( " mm )
12:52 am 00:52 Clear 17 -8.3 9 -12.8 70 70 SE 12 19 30.51 1033 10 16.0934 0 0
1:52 am 01:52 Clear 16 -8.9 9 -12.8 74 74 SSE 6 9 30.51 1033 10 16.0934 0 0
2:52 am 02:52 Clear 14 -10 8 -13.3 77 77 S 7 11 30.51 1033 10 16.0934 0 0
3:52 am 03:52 Clear 17 -8.3 9 -12.8 70 70 SSE 12 19 30.48 1032 10 16.0934 0 0
4:52 am 04:52 Clear 15 -9.4 9 -12.8 77 77 S 7 11 30.48 1032 10 16.0934 0 0
5:52 am 05:52 Clear 16 -8.9 9 -12.8 74 74 SSE 9 15 30.46 1032 10 16.0934 0 0
6:52 am 06:52 Clear 15 -9.4 9 -12.8 77 77 SSE 7 11 30.46 1032 10 16.0934 0 0
7:52 am 07:52 Mostly Cloudy 16 -8.9 10 -12.2 77 77 SSE 7 11 30.45 1031 10 16.0934 0 0
8:52 am 08:52 Partly Cloudy 19 -7.2 12 -11.1 74 74 SSE 12 19 30.46 1032 10 16.0934 0 0
9:52 am 09:52 Mostly Cloudy 24 -4.4 15 -9.4 68 68 S 12 19 30.43 1030 10 16.0934 0 0
10:52 am 10:52 Mostly Cloudy 28 -2.2 15 -9.4 58 58 SSE 16 26 30.39 1029 10 16.0934 0 0
11:52 am 11:52 Mostly Cloudy 33 0.6 15 -9.4 47 47 S 12 19 30.37 1028 10 16.0934 0 0
12:52 pm 12:52 Mostly Cloudy 37 2.8 12 -11.1 36 36 S 17 28 30.32 1027 10 16.0934 0 0
1:52 pm 13:52 Mostly Cloudy 41 5 13 -10.6 32 32 S 16 26 30.27 1025 10 16.0934 0 0
2:52 pm 14:52 Mostly Cloudy 44 6.7 13 -10.6 28 28 SSW 15 24 30.23 1024 10 16.0934 0 0
3:52 pm 15:52 Mostly Cloudy 44 6.7 9 -12.8 24 24 SSW 15 24 30.21 1023 10 16.0934 0 0
4:52 pm 16:52 Partly Cloudy 44 6.7 12 -11.1 27 27 SSW 12 19 30.19 1023 10 16.0934 0 0
5:52 pm 17:52 Mostly Cloudy 43 6.1 13 -10.6 29 29 S 10 17 30.19 1022 10 16.0934 0 0
6:52 pm 18:52 Mostly Cloudy 39 3.9 16 -8.9 39 39 S 10 17 30.17 1022 10 16.0934 0 0
7:52 pm 19:52 Mostly Cloudy 38 3.3 18 -7.8 44 44 S 8 13 30.18 1022 10 16.0934 0 0
8:52 pm 20:52 Mostly Cloudy 39 3.9 19 -7.2 45 45 S 9 15 30.16 1021 10 16.0934 0 0
9:52 pm 21:52 Partly Cloudy 37 2.8 18 -7.8 46 46 SSW 6 9 30.16 1021 10 16.0934 0 0
10:52 pm 22:52 Mostly Cloudy 40 4.4 19 -7.2 43 43 SSW 7 11 30.16 1021 10 16.0934 0 0
11:52 pm 23:52 Mostly Cloudy 40 4.4 20 -6.7 45 45 SW 5 7 30.16 1022 10 16.0934 0 0

Powered by AerisWeather